User: anonymous   Login
Location: Unspecified
(40.7945°N, 111.1337°W)
Time: 08:37:01
(UTC-06:00)
Language:

Vanguard 2 Rocket - Orbit

View from above orbital plane
View from above orbital plane
View from above satellite
View from above satellite

Ground track
Ground track

The orbit data is extracted from the following two-line orbital elements,

1    12U 59001B   19166.42612409 +.00000147 +00000-0 +71399-4 0  9994
2    12 032.9065 198.5856 1666202 301.0871 043.6600 11.44264015237813
Epoch (UTC): 15 June 2019 10:13:37
Eccentricity: 0.1666202
inclination: 32.9065°
perigee height: 554 km
apogee height: 3326 km
right ascension of ascending node: 198.5856°
argument of perigee: 301.0871°
revolutions per day: 11.44264015
mean anomaly at epoch: 43.6600°
orbit number at epoch: 23781

The dashed part of the orbit path shows where the satellite is in the earth's shadow,  

DLR